Location: Moscow
(38.3171°N, 79.0889°W)
Time: 01:01:26
(UTC+00:00)

NOAA 15 - Pass Details

Date: 07 November 2025
Orbit: 794 x 809 km, 98.5° (Epoch: 08 December)

Event Time Altitude Azimuth Distance (km) Brightness Sun altitude
Rises 23:38:11 0° 161° (SSE) 3,299 7.7 -17.5°
Reaches altitude 10° 23:40:30 10° 160° (SSE) 2,375 6.9 -18.0°
Maximum altitude 23:45:44 77° 75° (ENE) 830 4.5 -19.0°
Drops below altitude 10° 23:51:02 10° 350° (N) 2,398 7.1 -20.0°
Sets 23:53:23 0° 349° (N) 3,334 7.9 -20.5°
